map of CUN home
Great Circle Mapper logo
CUN - Airport
Location
City:  Cancún, Quintana Roo, México
Name:Cancún International Airport
ICAO / IATA:MMUN / CUN

Details
Type:Airport (Aerodrome, Airfield)
Use:Public/Civil, International (customs port of entry)
Latitude:21°02'12"N (21.036528)
Longitude:86°52'37"W (-86.877082)
Datum:WGS 1984
Elevation:20 ft (6 m)
Variation:1.50°W (WMM2015 magnetic declination)
-0.13° annual change
Runways:1
Longest:11483 × 197 ft (3500 × 60 m), paved

Time
Time Zone:UTC-6 (DST-5)
Local Time:

Weather
METAR:MMUN 261146Z 31005KT 7SM FEW015 13/12 A3010 RMK SLP178 51013 906 8/500
TAF:MMUN 252309Z 2600/2706 36008KT P6SM SCT015 SCT070 TX25/2618Z TN14/2612Z
BECMG 2603/2604 35005KT SCT015
FM261400 32012KT P6SM SCT015
BECMG 2617/2618 32020KT
FM270300 34010KT P6SM SCT015

Related Locations
Nearby:
Farthest:CCK: 11776 mi / 18952 km
West Island (Pulau Panjang) [Cocos (Keeling) Islands], CC

Find:

   beyond  
but within

Other Information
Maps:
NOTAMs:
Links:
Sources:

  
flag of México   

Sectional Chart

Flight Planning
at skyvector.com

Satellite Image

Google Maps Satellite View

 

Copyright © 2004-2015 Karl L. Swartz. All rights reserved.
The Great Circle Mapper name and logo are trademarks of the Great Circle Mapper.
All other trademarks mentioned herein belong to their respective owners.
Please see credits for attibutions and further copyright information.

  Follow gcmap on Facebook Follow gcmap on Twitter

hCard Microformat

Geo Microformat